Lid_Strength_Index
4 4 4 4 4 4 4 4 5 5 4 4 4 4 4 3 3 6 9 6 5 3 1 6 7 7 8 10 10 10 15 15 14 12 12 9 10 7 6 5 5 4 5 4 3
4 4 4 4 4 4 4 4 4 5 5 4 4 4 4 4 7 8 4 2 1 -0 4 7 8 8 12 11 11 12 15 14 11 10 10 9 9 9 7 6 6 5 4 3 2
4 4 4 4 4 4 4 4 4 5 5 4 4 4 4 4 9 7 1 1 -0 0 2 5 7 9 12 11 11 12 14 11 9 9 9 9 10 9 8 9 7 6 5 4 4
4 4 4 4 5 4 4 4 4 4 4 4 4 4 4 6 16 4 -2 -2 -2 -0 3 6 8 12 11 12 10 12 10 9 9 8 9 10 9 10 9 9 6 5 6 8 8
5 5 5 5 5 5 4 4 4 4 5 5 5 5 6 9 9 5 -2 -1 -0 1 5 6 10 10 11 10 10 11 9 8 7 7 9 9 10 10 8 7 7 6 5 7 8
4 4 5 5 5 4 4 5 4 4 4 5 5 5 8 12 6 3 0 1 1 3 5 7 8 8 8 9 10 9 8 8 7 8 7 10 11 11 9 7 7 7 7 8 8
4 4 4 4 4 4 4 5 5 5 4 4 4 6 8 9 4 3 3 4 3 3 6 5 6 8 7 9 7 7 10 9 8 8 9 9 12 11 9 9 9 9 8 8 7
4 4 4 4 4 4 4 5 5 5 5 4 4 6 10 4 4 4 4 5 4 3 4 5 5 8 8 7 8 11 12 12 9 8 8 8 12 10 9 9 9 9 8 8 7
3 3 3 3 3 4 5 5 5 5 4 4 6 8 10 3 4 3 3 5 4 4 5 4 6 8 8 11 13 13 14 13 11 8 8 9 11 9 8 9 9 9 8 8 8
2 3 3 3 3 3 4 4 4 4 4 5 5 10 8 7 4 3 4 4 4 4 6 6 8 10 11 12 16 14 14 12 12 9 10 10 11 9 8 8 9 9 9 8 8
2 2 2 2 2 3 4 7 6 6 6 9 8 9 8 4 2 5 3 3 4 6 10 8 11 12 11 10 10 11 12 12 11 9 10 11 11 9 8 9 9 8 8 8 7
2 2 2 2 2 3 5 9 7 6 10 6 6 7 6 5 6 5 3 6 7 10 9 10 12 9 8 8 9 10 11 12 11 9 11 11 11 9 8 9 9 8 8 7 7
2 2 2 2 3 5 8 8 5 6 10 8 6 6 6 5 6 6 4 6 7 9 9 11 9 7 8 9 9 10 11 11 11 10 10 11 13 11 9 9 8 8 7 7 7
2 2 2 2 6 6 8 5 6 6 13 10 8 6 5 5 8 4 4 5 7 9 9 10 7 8 9 10 10 12 10 10 10 12 16 12 17 13 11 10 9 9 8 7 7
2 2 2 2 8 8 5 6 6 7 19 7 7 3 4 8 7 7 5 6 8 8 8 10 9 10 10 10 9 11 9 10 11 13 15 15 17 14 12 11 10 9 8 8 7
1 1 2 5 7 6 4 4 6 13 19 10 7 7 8 7 7 7 7 6 5 8 8 9 7 8 9 8 9 8 10 12 13 15 18 15 15 15 13 12 10 8 8 8 7
1 1 3 4 6 3 5 6 13 17 9 12 9 8 9 9 8 8 8 10 11 13 13 10 10 8 7 10 9 11 15 18 18 18 18 13 15 14 11 9 8 8 8 8 7
2 2 4 4 5 4 5 9 18 12 10 8 8 8 10 9 9 8 9 11 9 10 12 13 14 9 7 10 12 13 14 17 20 19 17 12 15 13 8 7 7 7 7 7 7
3 6 5 3 4 3 8 15 14 11 9 9 8 10 11 9 10 10 11 10 9 10 13 14 12 7 7 7 8 11 14 12 15 15 17 15 12 10 8 8 7 7 7 8 7
6 8 6 2 2 4 9 13 11 7 7 8 12 10 12 11 12 12 12 9 9 7 9 11 15 9 8 7 7 9 8 14 15 20 21 16 15 14 12 10 9 8 9 9 9
7 8 3 2 3 6 13 11 9 6 6 8 10 11 11 11 11 12 11 9 8 8 8 10 12 12 10 11 12 12 12 12 12 15 20 21 17 10 11 9 9 8 8 8 8
7 10 3 2 8 9 11 9 7 7 6 7 8 9 10 10 11 12 12 10 7 7 11 10 12 15 13 9 8 10 12 13 17 18 16 17 17 9 9 8 8 8 7 7 7
9 8 3 3 12 11 9 8 7 7 8 8 9 8 8 11 13 11 10 7 7 9 11 10 14 17 15 12 10 12 12 12 13 14 17 19 17 9 8 8 7 8 7 6 7
9 10 7 6 7 9 10 9 9 6 8 7 8 8 9 11 11 12 11 8 7 8 6 8 13 15 17 15 12 14 12 12 13 17 17 16 15 12 10 10 8 8 7 7 7
8 9 9 11 9 9 9 8 9 10 8 8 9 9 11 13 11 12 10 9 8 7 9 10 15 14 13 11 11 12 12 11 13 13 16 14 14 11 9 9 8 8 8 7 7
8 8 7 8 8 9 9 9 9 9 9 9 10 9 10 13 12 13 11 12 12 9 11 9 15 13 14 11 11 13 12 11 11 11 12 12 13 8 7 8 7 7 8 8 8
6 5 7 8 9 10 10 8 8 8 8 7 9 11 11 10 9 9 9 9 9 11 11 11 13 14 17 12 13 16 13 12 11 10 11 13 11 9 9 8 8 10 9 9 8